Date,TemperatureHighF,TemperatureAvgF,TemperatureLowF,DewpointHighF,DewpointAvgF,DewpointLowF,HumidityHigh,HumidityAvg,HumidityLow,PressureMaxIn,PressureMinIn,WindSpeedMaxMPH,WindSpeedAvgMPH,GustSpeedMaxMPH,PrecipitationSumIn
2013-11-1,61,54,47,52,50,46,96,87,68,30.28,29.84,8,0,8,0.00
2013-11-2,54,49,44,50,44,38,96,84,64,29.91,29.53,32,6,32,0.63
2013-11-3,52,45,40,41,39,36,90,81,59,30.11,29.91,13,2,13,0.00
2013-11-4,50,43,35,40,36,33,95,79,54,30.18,30.05,5,0,5,0.03
2013-11-5,47,44,43,43,42,40,95,92,85,30.25,30.01,7,1,7,0.05
2013-11-6,51,46,41,46,44,39,95,90,80,30.31,30.03,7,0,7,0.10
2013-11-7,50,48,47,49,47,46,96,95,95,30.03,29.77,6,1,6,0.44
2013-11-8,54,48,43,45,43,40,88,82,68,30.16,30.01,13,3,19,0.00
2013-11-9,47,42,36,44,40,35,95,93,87,30.15,30.07,3,1,8,0.09
2013-11-10,47,46,46,45,44,44,93,92,91,30.12,30.10,9,3,9,0.00
2013-11-11,55,47,42,48,44,41,96,91,79,30.16,30.00,8,1,8,0.00
2013-11-12,59,51,43,54,48,42,96,91,82,30.38,30.04,9,1,9,0.12
2013-11-13,58,52,47,50,47,45,94,83,67,30.44,30.31,12,1,12,0.02
2013-11-14,50,46,42,47,44,40,95,92,84,30.31,30.06,8,0,8,0.02
2013-11-15,46,44,42,45,41,39,95,91,84,30.06,29.35,27,6,27,0.22
2013-11-16,46,43,40,41,38,36,88,83,74,29.79,29.35,23,5,27,0.00
2013-11-17,49,46,42,46,43,38,96,90,78,29.91,29.79,14,3,19,0.70
2013-11-18,53,49,47,50,47,46,96,92,78,29.91,29.55,24,4,24,0.43
2013-11-19,54,45,38,51,40,26,95,84,60,30.05,29.57,17,3,18,0.08
2013-11-20,41,36,28,32,27,25,93,72,56,30.49,30.05,10,2,12,0.00
2013-11-21,41,32,25,31,26,23,95,81,53,30.64,30.48,7,1,7,0.01
2013-11-22,46,33,24,34,28,22,94,82,58,30.63,30.44,7,1,7,0.00
2013-11-23,44,37,27,36,32,25,95,84,68,30.44,30.18,7,1,7,0.01
2013-11-24,48,37,29,38,33,28,95,86,67,30.23,30.16,7,1,7,0.00
2013-11-25,52,42,31,41,37,30,95,84,63,30.32,30.24,6,0,6,0.00
2013-11-26,51,40,30,41,35,29,95,85,62,30.27,30.09,6,1,6,0.01
2013-11-27,55,44,38,44,40,36,95,85,64,30.09,29.95,5,0,5,0.00
2013-11-28,51,40,33,44,38,32,96,89,75,30.14,30.02,5,0,5,0.01
2013-11-29,48,44,37,45,41,35,95,90,83,30.32,30.18,2,0,6,0.01
2013-11-30,51,47,43,48,44,42,95,90,81,30.35,30.10,7,1,7,0.20